Regional Weather Roundup
Issued by NWS

Home | Current Version | Previous Version | Graphics & Text | Print | Product List | Glossary On
Versions: 1 2 3 4 5 6 7 8 9 10 11 12 13 14 15 16 17 18 19 20 21 22 23 24 25 26 27 28 29 30 31 32 33 34 35 36 37 38 39 40 41 42 43 44 45 46 47 48 49 50
000
ASUS43 KMPX 101001
RWRMN
WEATHER ROUNDUP FOR MINNESOTA
NATIONAL WEATHER SERVICE TWIN CITIES/CHANHASSEN MN
400 AM CST SUN DEC 10 2017


NOTE: "FAIR" INDICATES FEW OR NO CLOUDS BELOW 12,000 FEET WITH NO
SIGNIFICANT WEATHER AND/OR OBSTRUCTIONS TO VISIBILITY. N/A MEANS
CURRENT SKY AND/OR WEATHER CONDITIONS ARE NOT AVAILABLE.

MNZ060>063-068>070-101100-
   Twin Cities Metro

CITY           SKY/WX    TMP DP  RH WIND       PRES   REMARKS
TWIN CITIES    CLOUDY    20  18  92 CALM      29.83R
ST PAUL        CLOUDY    17  14  88 CALM      29.84R
CRYSTAL        CLOUDY    23  17  78 NW10      29.82R WCI  12
BLAINE         CLOUDY    19  18  93 W6        29.81R WCI  11
LAKEVILLE      CLOUDY    21  19  93 W8        29.81R WCI  12
EDEN PRAIRIE   CLOUDY    26  20  77 NW9       29.82R WCI  17
SOUTH ST PAUL  CLOUDY    20  19  95 CALM      29.82R
LAKE ELMO      FAIR      14  12  92 CALM      29.82R
$$
MNZ001>005-007-008-013>017-022>024-027-028-101100-
   Northwest Minnesota

CITY           SKY/WX    TMP DP  RH WIND       PRES   REMARKS
BEMIDJI        CLOUDY    22  19  91 N8        29.87R WCI  12
HALLOCK        CLOUDY    21  18  86 N7        29.96S WCI  13
ROSEAU         CLOUDY    19  16  86 N8        29.93R WCI   9
WARROAD        CLOUDY    19  16  86 NW8       29.92R WCI   9
CROOKSTON      CLOUDY    21  18  86 N14       29.96R WCI   8
FOSSTON        CLOUDY    19  18  93 N12       29.90R WCI   7
DETROIT LAKES  CLOUDY    23  21  93 NW12G18   29.90R WCI  12
MOORHEAD       PTCLDY    25  19  80 N15       29.95R WCI  12
PARK RAPIDS    CLOUDY    22  19  89 NW9       29.84R WCI  12
MAHNOMEN       CLOUDY    21  19  90 NW8       29.89R WCI  11
$$
MNZ006-009>011-018-025>026-101100-
   North Central Minnesota

CITY           SKY/WX    TMP DP  RH WIND       PRES   REMARKS
BAUDETTE       CLOUDY    18  15  88 N10       29.90R WCI   6
FLAG ISLAND    CLOUDY    18  12  79 N12       29.91R WCI   5
INTL FALLS     CLOUDY    17  13  84 N9        29.87R WCI   6
WASKISH        CLOUDY    19  16  86 N7        29.89R WCI  10
BIG FORK       CLOUDY    19  16  86 NW3       29.85R
GRAND RAPIDS   CLOUDY    22  17  81 N13       29.84R WCI  10
ORR            CLOUDY    18  12  79 NW5       29.81R WCI  11
COOK           CLOUDY    18  14  86 NW6       29.83R WCI   9
WALKER         CLOUDY    22  19  88 NW6       29.85R WCI  14
$$
MNZ012-019>021-037-101100-
   Northeast Minnesota

CITY           SKY/WX    TMP DP  RH WIND       PRES   REMARKS
DULUTH         CLOUDY    20  16  84 NW5       29.77R WCI  13
ELY            CLOUDY    16  12  86 N3        29.80R
HIBBING        CLOUDY    19  14  81 N12       29.81R WCI   7
EVELETH        CLOUDY    19  13  79 N7        29.81R WCI   9
DULUTH HARBOR  CLOUDY    23  19  86 S5        29.83R WCI  17
TWO HARBORS    CLOUDY    23  18  80 W8        29.76S WCI  14
G MARAIS ARPRT FLURRIES  10   5  79 NW13G21   29.71F WCI  -5
$$
MNZ029>031-032-039>041-046>048-054>057-064-101100-
   West Central Minnesota

CITY           SKY/WX    TMP DP  RH WIND       PRES   REMARKS
FERGUS FALLS   PTCLDY    25  19  80 N22G30    29.94R WCI  10
MORRIS         CLOUDY    30  21  69 NW20G31   29.89R WCI  18
ALEXANDRIA     CLOUDY    26  20  77 NW12      29.86R WCI  16
ELBOW LAKE     FAIR      26  22  84 NW13G18   29.90R WCI  15
WADENA         CLOUDY    21  18  86 NW7       29.85R WCI  13
GLENWOOD       CLOUDY    27  21  80 NW12      29.86R WCI  16
BENSON         CLOUDY    30  23  74 N16       29.91R WCI  19
ORTONVILLE     PTCLDY    32  25  74 NW15G21   29.92R WCI  22
MADISON        CLOUDY    36  27  69 NW13      29.93R
WILLMAR        FAIR      30  25  80 NW13      29.88R WCI  20
$$
MNZ033>034-036-042>043-049>051-058-059-101100-
   Central Minnesota

CITY           SKY/WX    TMP DP  RH WIND       PRES   REMARKS
ST CLOUD       PTCLDY    24  20  84 NW9       29.83R WCI  14
SAUK CENTRE    FAIR      27  20  77 NW9       29.85R WCI  17
PAYNESVILLE    CLOUDY    27  23  87 NW7       29.85R WCI  19
AITKIN         CLOUDY    21  16  79 W5        29.80R WCI  15
PINE RIVER     CLOUDY    19  18  93 NW5       29.87R WCI  13
BRAINERD       CLOUDY    23  18  81 NW9       29.83R WCI  13
STAPLES        CLOUDY    19  18  93 NW7       29.85R WCI  10
LONG PRAIRIE   FAIR      27  19  74 W13       29.84R WCI  16
LITTLE FALLS   CLOUDY    25  18  74 NW3       29.84R
LITCHFIELD     CLOUDY    28  25  86 NW9       29.85R WCI  20
BUFFALO        CLOUDY    25  21  84 NW8       29.84R WCI  17
MAPLE LAKE     CLOUDY    27  23  86 NW6       29.84R WCI  20
HUTCHINSON     PTCLDY    27  23  84 W12       29.86R WCI  17
$$
MNZ037-044-045-052-053-101100-
   East Central Minnesota

CITY           SKY/WX    TMP DP  RH WIND       PRES   REMARKS
PRINCETON      CLOUDY    12  10  92 CALM      29.81S
MORA           CLOUDY    21  16  79 CALM      29.82S
CAMBRIDGE      CLOUDY    16  10  79 CALM      29.81S
RUSH CITY      CLOUDY    19  16  88 CALM      29.81S
MOOSE LAKE     CLOUDY    23  18  80 CALM      29.79R
HINCKLEY       CLOUDY    23  19  86 W3        29.81R
CLOQUET        CLOUDY    21  16  79 CALM      29.79R
MCGREGOR       CLOUDY    23  19  86 NW5       29.81R WCI  17
$$
MNZ071>073-080-081-089-090-097-098-101100-
   Southwest Minnesota

CITY           SKY/WX    TMP DP  RH WIND       PRES   REMARKS
MONTEVIDEO     CLOUDY    32  25  74 N16G23    29.91R WCI  21
GRANITE FALLS  CLOUDY    33  26  75 NW14G20   29.91S WCI  24
CANBY          CLOUDY    33  27  76 NW8       29.94S WCI  27
MARSHALL       CLOUDY    34  24  67 NW20      29.92R WCI  23
REDWOOD FALLS  CLOUDY    33  23  66 NW15G25   29.89R WCI  23
OLIVIA         CLOUDY    32  27  80 NW13G18   29.87R WCI  22
PIPESTONE      CLOUDY    30  25  80 N13G21    29.92R WCI  20
WINDOM         CLOUDY    34  19  55 NW20G26   29.89R WCI  22
WORTHINGTON    CLOUDY    30  25  81 NW16      29.91R WCI  19
JACKSON        CLOUDY    32  25  74 MISG      29.88R
TRACY          CLOUDY    34  27  77 NW16      29.90S WCI  23
$$
MNZ065>067-074>077-082>085-091>093-101100-
   South Central Minnesota

CITY           SKY/WX    TMP DP  RH WIND       PRES   REMARKS
MANKATO        CLOUDY    28  23  81 NW15      29.85R WCI  16
NEW ULM        CLOUDY    30  23  74 NW15      29.86R WCI  19
ST JAMES       CLOUDY    30  25  80 NW15      29.88R WCI  19
FAIRMONT       PTCLDY    31  25  78 NW18      29.87R WCI  19
GLENCOE        CLOUDY    28  23  83 W10       29.83R WCI  18
FARIBAULT      CLOUDY    21  19  93 W6        29.83R WCI  14
WASECA         CLOUDY    19  18  93 W6        29.85R WCI  11
ALBERT LEA     CLEAR     23  18  80 W6        29.82S WCI  16
$$
MNZ078>079-086>088-094>096-101100-
   Southeast Minnesota

CITY           SKY/WX    TMP DP  RH WIND       PRES   REMARKS
ROCHESTER      CLEAR     20  17  88 SW10      29.80F WCI   9
RED WING       CLOUDY    16  10  79 CALM      29.81F
STANTON        CLOUDY    24  20  83 W6        29.81R WCI  17
DODGE CENTER   CLOUDY    19  16  86 SW8       29.79S WCI   9
WINONA         CLOUDY    23  18  80 CALM      29.84F
AUSTIN         CLOUDY    19  16  86 SW3       29.81F
PRESTON        CLEAR     20  15  81 SW10      29.81S WCI   9
$$
ABBREVIATIONS USED IN REMARKS
   TC - TEMPERATURES IN CELSIUS
  WCI - WIND CHILL INDEX
   HX - HEAT INDEX
  VSB - VISIBILITY
$$




USA.gov is the U.S. government's official web portal to all federal, state and local government web resources and services.